JZR84SK OIAW-OKKK

Flight info

Callsign JZR84SK
Flight time 0h 30m
Altitude 17000
Route GABSU DCT SIDAD
Aircraft A320/M-SDE3FGHIRWY/LB1

Departure

Time 2026-05-05 13:29
Airport Qasem Soleimani International Airport (OIAW)

Arrival

Time 2026-05-05 14:00
Airport Kuwait International Airport (OKKK)
Time Latitude Longitude Altitude Speed Heading
2026-05-05 13:09 31.34423 48.74619 61 ft 0 kts 221°
2026-05-05 13:20 31.34425 48.74621 68 ft 2 kts 221°
2026-05-05 13:20 31.34438 48.74634 67 ft 2 kts 221°
2026-05-05 13:20 31.34450 48.74647 60 ft 2 kts 215°
2026-05-05 13:20 31.34465 48.74656 63 ft 2 kts 160°
2026-05-05 13:21 31.34476 48.74648 59 ft 0 kts 120°
2026-05-05 13:22 31.34476 48.74654 60 ft 2 kts 94°
2026-05-05 13:23 31.34466 48.74694 67 ft 7 kts 116°
2026-05-05 13:23 31.34441 48.74744 66 ft 7 kts 122°
2026-05-05 13:23 31.34411 48.74793 63 ft 8 kts 128°
2026-05-05 13:23 31.34385 48.74857 64 ft 9 kts 105°
2026-05-05 13:24 31.34365 48.74916 61 ft 7 kts 115°
2026-05-05 13:24 31.34351 48.74966 65 ft 6 kts 102°
2026-05-05 13:24 31.34341 48.75048 66 ft 14 kts 97°
2026-05-05 13:24 31.34320 48.75175 59 ft 18 kts 111°
2026-05-05 13:25 31.34251 48.75311 64 ft 21 kts 122°
2026-05-05 13:25 31.34154 48.75465 61 ft 26 kts 126°
2026-05-05 13:25 31.34053 48.75654 63 ft 29 kts 126°
2026-05-05 13:25 31.33942 48.75844 63 ft 28 kts 124°
2026-05-05 13:26 31.33827 48.76034 62 ft 28 kts 124°
2026-05-05 13:26 31.33714 48.76226 59 ft 29 kts 126°
2026-05-05 13:26 31.33604 48.76414 62 ft 27 kts 121°
2026-05-05 13:26 31.33499 48.76599 57 ft 27 kts 125°
2026-05-05 13:27 31.33392 48.76781 62 ft 27 kts 124°
2026-05-05 13:27 31.33283 48.76968 62 ft 27 kts 122°
2026-05-05 13:27 31.33181 48.77143 61 ft 27 kts 124°
2026-05-05 13:27 31.33067 48.77336 56 ft 30 kts 124°
2026-05-05 13:28 31.32963 48.77516 54 ft 25 kts 124°
2026-05-05 13:28 31.32869 48.77589 58 ft 14 kts 140°
2026-05-05 13:28 31.32890 48.77638 59 ft 6 kts 325°
2026-05-05 13:28 31.32929 48.77582 58 ft 22 kts 302°
2026-05-05 13:29 31.33165 48.77177 60 ft 95 kts 304°
2026-05-05 13:29 31.33647 48.76352 63 ft 150 kts 304°
2026-05-05 13:29 31.34323 48.75233 329 ft 175 kts 301°
2026-05-05 13:29 31.35023 48.74071 969 ft 178 kts 298°
2026-05-05 13:30 31.35555 48.72785 1470 ft 177 kts 274°
2026-05-05 13:30 31.35379 48.71377 1686 ft 180 kts 234°
2026-05-05 13:30 31.34518 48.70281 1923 ft 192 kts 208°
2026-05-05 13:30 31.33197 48.69907 2214 ft 206 kts 178°
2026-05-05 13:31 31.31698 48.70074 2491 ft 227 kts 175°
2026-05-05 13:31 31.30067 48.70265 2822 ft 247 kts 176°
2026-05-05 13:31 31.28318 48.70454 3566 ft 251 kts 176°
2026-05-05 13:31 31.26565 48.70634 4333 ft 255 kts 176°
2026-05-05 13:32 31.24791 48.70668 5074 ft 257 kts 191°
2026-05-05 13:32 31.23130 48.69937 5817 ft 261 kts 205°
2026-05-05 13:32 31.21480 48.69023 6560 ft 264 kts 205°
2026-05-05 13:32 31.19808 48.68085 7305 ft 268 kts 206°
2026-05-05 13:33 31.18122 48.67137 8092 ft 270 kts 206°
2026-05-05 13:33 31.16416 48.66187 8861 ft 273 kts 206°
2026-05-05 13:33 31.14683 48.65223 9605 ft 278 kts 206°
2026-05-05 13:33 31.12896 48.64231 10070 ft 293 kts 205°
2026-05-05 13:34 31.11002 48.63185 10267 ft 316 kts 205°
2026-05-05 13:34 31.08941 48.62046 10422 ft 338 kts 205°
2026-05-05 13:34 31.06767 48.60849 10863 ft 348 kts 205°
2026-05-05 13:34 31.04555 48.59632 11515 ft 352 kts 206°
2026-05-05 13:35 31.02361 48.58421 12217 ft 353 kts 206°
2026-05-05 13:35 31.00132 48.57191 12932 ft 354 kts 206°
2026-05-05 13:35 30.97890 48.55956 13646 ft 356 kts 207°
2026-05-05 13:35 30.95642 48.54719 14293 ft 357 kts 207°
2026-05-05 13:36 30.93416 48.53490 14913 ft 359 kts 208°
2026-05-05 13:36 30.91137 48.52279 15515 ft 363 kts 205°
2026-05-05 13:36 30.88705 48.51379 16112 ft 370 kts 197°
2026-05-05 13:36 30.86127 48.50959 16567 ft 378 kts 188°
2026-05-05 13:37 30.83484 48.50853 16683 ft 383 kts 187°
2026-05-05 13:37 30.80779 48.50790 16717 ft 402 kts 186°
2026-05-05 13:37 30.77936 48.50754 16711 ft 413 kts 185°
2026-05-05 13:37 30.75042 48.50732 16713 ft 416 kts 185°
2026-05-05 13:38 30.72131 48.50713 16714 ft 417 kts 185°
2026-05-05 13:38 30.69227 48.50690 16716 ft 417 kts 185°
2026-05-05 13:38 30.66316 48.50661 16716 ft 417 kts 185°
2026-05-05 13:38 30.63412 48.50626 16716 ft 417 kts 185°
2026-05-05 13:39 30.60546 48.50583 16716 ft 417 kts 186°
2026-05-05 13:39 30.57633 48.50540 16716 ft 417 kts 186°
2026-05-05 13:39 30.54725 48.50497 16715 ft 417 kts 186°
2026-05-05 13:39 30.51820 48.50455 16717 ft 417 kts 185°
2026-05-05 13:40 30.48907 48.50412 16705 ft 417 kts 186°
2026-05-05 13:40 30.46033 48.50371 16707 ft 418 kts 186°
2026-05-05 13:40 30.43120 48.50331 16707 ft 418 kts 186°
2026-05-05 13:40 30.40198 48.50291 16711 ft 419 kts 186°
2026-05-05 13:41 30.37282 48.50250 16714 ft 419 kts 186°
2026-05-05 13:41 30.34366 48.50209 16717 ft 419 kts 186°
2026-05-05 13:41 30.31475 48.50170 16721 ft 419 kts 186°
2026-05-05 13:41 30.28543 48.50129 16714 ft 419 kts 186°
2026-05-05 13:42 30.25616 48.50087 16717 ft 419 kts 186°
2026-05-05 13:42 30.22697 48.50044 16728 ft 420 kts 186°
2026-05-05 13:42 30.19806 48.50001 16731 ft 420 kts 186°
2026-05-05 13:42 30.16879 48.49960 16732 ft 420 kts 185°
2026-05-05 13:43 30.13982 48.49924 16514 ft 413 kts 185°
2026-05-05 13:43 30.11123 48.49889 16265 ft 409 kts 185°
2026-05-05 13:43 30.08298 48.49855 16017 ft 398 kts 185°
2026-05-05 13:43 30.05573 48.49822 15759 ft 386 kts 186°
2026-05-05 13:44 30.02928 48.49787 15518 ft 374 kts 186°
2026-05-05 13:44 30.00363 48.49752 15277 ft 363 kts 186°
2026-05-05 13:44 29.97876 48.49717 15046 ft 352 kts 186°
2026-05-05 13:44 29.95456 48.49684 14804 ft 343 kts 186°
2026-05-05 13:45 29.93130 48.49651 14572 ft 334 kts 186°
2026-05-05 13:45 29.90834 48.49618 14337 ft 326 kts 186°
2026-05-05 13:45 29.88633 48.49335 14105 ft 311 kts 199°
2026-05-05 13:45 29.86667 48.48420 13875 ft 298 kts 213°
2026-05-05 13:46 29.85036 48.47010 13641 ft 289 kts 224°
2026-05-05 13:46 29.83550 48.45471 13389 ft 284 kts 223°
2026-05-05 13:46 29.82089 48.43971 13142 ft 279 kts 223°
2026-05-05 13:46 29.80654 48.42501 12897 ft 277 kts 223°
2026-05-05 13:47 29.79215 48.41030 12649 ft 276 kts 223°
2026-05-05 13:47 29.77785 48.39567 12396 ft 275 kts 223°
2026-05-05 13:47 29.76356 48.38102 12151 ft 275 kts 223°
2026-05-05 13:47 29.74928 48.36636 11903 ft 274 kts 223°
2026-05-05 13:48 29.73499 48.35172 11660 ft 274 kts 223°
2026-05-05 13:48 29.72094 48.33737 11422 ft 273 kts 223°
2026-05-05 13:48 29.70670 48.32283 11182 ft 273 kts 222°
2026-05-05 13:48 29.69245 48.30830 10945 ft 273 kts 222°
2026-05-05 13:49 29.67824 48.29382 10645 ft 273 kts 222°
2026-05-05 13:49 29.66406 48.27936 10268 ft 272 kts 222°
2026-05-05 13:49 29.65012 48.26511 10137 ft 262 kts 222°
2026-05-05 13:49 29.63669 48.25140 9993 ft 253 kts 222°
2026-05-05 13:50 29.62384 48.23830 9841 ft 248 kts 222°
2026-05-05 13:50 29.61091 48.22511 9598 ft 248 kts 222°
2026-05-05 13:50 29.59804 48.21198 9288 ft 246 kts 222°
2026-05-05 13:50 29.58525 48.19892 8966 ft 245 kts 222°
2026-05-05 13:51 29.57250 48.18593 8650 ft 244 kts 222°
2026-05-05 13:51 29.55974 48.17295 8335 ft 244 kts 222°
2026-05-05 13:51 29.54698 48.15999 8019 ft 244 kts 222°
2026-05-05 13:51 29.53428 48.14709 7706 ft 243 kts 222°
2026-05-05 13:52 29.52178 48.13437 7399 ft 242 kts 222°
2026-05-05 13:52 29.50916 48.12154 7075 ft 242 kts 221°
2026-05-05 13:52 29.49657 48.10874 6778 ft 241 kts 221°
2026-05-05 13:52 29.48399 48.09598 6471 ft 240 kts 221°
2026-05-05 13:53 29.47151 48.08333 6164 ft 239 kts 221°
2026-05-05 13:53 29.45919 48.07083 5911 ft 233 kts 221°
2026-05-05 13:53 29.44708 48.05850 5562 ft 232 kts 223°
2026-05-05 13:53 29.43713 48.04416 5246 ft 230 kts 240°
2026-05-05 13:54 29.43070 48.02761 4942 ft 230 kts 244°
2026-05-05 13:54 29.42438 48.01074 4639 ft 230 kts 244°
2026-05-05 13:54 29.41803 47.99389 4325 ft 229 kts 243°
2026-05-05 13:54 29.41165 47.97703 4013 ft 231 kts 243°
2026-05-05 13:55 29.40524 47.96012 3705 ft 231 kts 243°
2026-05-05 13:55 29.39883 47.94312 3399 ft 233 kts 242°
2026-05-05 13:55 29.39241 47.92608 3135 ft 230 kts 242°
2026-05-05 13:55 29.38622 47.90990 3061 ft 218 kts 238°
2026-05-05 13:56 29.37649 47.89809 2961 ft 197 kts 201°
2026-05-05 13:56 29.36346 47.89644 2776 ft 188 kts 163°
2026-05-05 13:56 29.35220 47.90316 2540 ft 178 kts 152°
2026-05-05 13:56 29.34133 47.90919 2272 ft 169 kts 158°
2026-05-05 13:57 29.33054 47.91415 2007 ft 164 kts 156°
2026-05-05 13:57 29.32047 47.91918 1791 ft 149 kts 156°
2026-05-05 13:57 29.31143 47.92387 1609 ft 139 kts 156°
2026-05-05 13:57 29.30272 47.92846 1435 ft 136 kts 156°
2026-05-05 13:58 29.29421 47.93296 1265 ft 136 kts 155°
2026-05-05 13:58 29.28560 47.93753 1097 ft 136 kts 153°
2026-05-05 13:58 29.27713 47.94203 937 ft 133 kts 153°
2026-05-05 13:58 29.26858 47.94658 772 ft 137 kts 154°
2026-05-05 13:59 29.25132 47.95583 428 ft 136 kts 152°
2026-05-05 13:59 29.24283 47.96030 270 ft 132 kts 152°
2026-05-05 14:00 29.22883 47.96772 184 ft 68 kts 155°
2026-05-05 14:00 29.22638 47.96907 183 ft 54 kts 156°
2026-05-05 14:00 29.22211 47.97128 183 ft 49 kts 154°
2026-05-05 14:00 29.22004 47.97255 183 ft 20 kts 132°
2026-05-05 14:01 29.21938 47.97408 172 ft 24 kts 108°
2026-05-05 14:01 29.22001 47.97487 168 ft 16 kts 344°
2026-05-05 14:01 29.22066 47.97455 168 ft 15 kts 336°
2026-05-05 14:01 29.22161 47.97406 169 ft 17 kts 336°
2026-05-05 14:02 29.22275 47.97345 169 ft 20 kts 333°
2026-05-05 14:02 29.22427 47.97265 169 ft 28 kts 335°
2026-05-05 14:02 29.22610 47.97167 169 ft 30 kts 335°
2026-05-05 14:02 29.22781 47.97074 169 ft 21 kts 335°
2026-05-05 14:03 29.22896 47.97015 170 ft 19 kts 334°
2026-05-05 14:03 29.23032 47.96957 170 ft 23 kts 343°
2026-05-05 14:03 29.23170 47.96869 175 ft 24 kts 335°
2026-05-05 14:03 29.23329 47.96786 178 ft 26 kts 334°
2026-05-05 14:04 29.23471 47.96711 175 ft 22 kts 334°
2026-05-05 14:04 29.23587 47.96649 172 ft 9 kts 336°
2026-05-05 14:04 29.23638 47.96638 169 ft 4 kts 359°
2026-05-05 14:04 29.23658 47.96683 168 ft 10 kts 68°
2026-05-05 14:05 29.23695 47.96782 167 ft 16 kts 65°
2026-05-05 14:05 29.23713 47.96887 167 ft 13 kts 146°
2026-05-05 14:05 29.23645 47.96921 167 ft 0 kts 156°